CW8878 Weather Reports


Display with metric or nautical units.
time (UTC)temp
F
wind
direction
speed
MPH
gust
MPH
rain 1hr
in
rain 24hr
in
rain mn
in
humidity
%
barometer
mb
20210419034639 69 296 1.0 2.0 0.00 0.00 0.00 22 1017.8
20210419034143 69 296 2.0 3.0 0.00 0.00 0.00 23 1017.7
20210419033841 69 296 2.0 3.0 0.00 0.00 0.00 23 1017.6
20210419033747 69 296 2.0 3.0 0.00 0.00 0.00 23 1017.7
20210419032734 69 296 2.0 3.0 0.00 0.00 0.00 23 1017.6
20210419031553 69 296 2.0 2.0 0.00 0.00 0.00 23 1017.6
20210419031048 69 296 2.0 2.0 0.00 0.00 0.00 23 1017.6
20210419030548 69 296 2.0 2.0 0.00 0.00 0.00 23 1017.5
20210419030056 69 296 1.0 2.0 0.00 0.00 0.00 23 1017.5
20210419025803 69 296 1.0 2.0 0.00 0.00 0.00 24 1017.6
20210419025318 70 296 1.0 2.0 0.00 0.00 0.00 24 1017.6
20210419024522 70 296 1.0 2.0 0.00 0.00 0.00 24 1017.7
20210419024032 70 296 2.0 2.0 0.00 0.00 0.00 25 1017.7
20210419023517 71 296 2.0 3.0 0.00 0.00 0.00 25 1017.8
20210419023024 71 296 2.0 3.0 0.00 0.00 0.00 25 1017.8
20210419022838 71 296 1.0 3.0 0.00 0.00 0.00 24 1017.9
20210419022129 72 296 1.0 2.0 0.00 0.00 0.00 24 1017.9
20210419021453 72 296 1.0 3.0 0.00 0.00 0.00 23 1018.1
20210419020948 72 296 1.0 3.0 0.00 0.00 0.00 24 1018.2
20210419020447 73 296 1.0 3.0 0.00 0.00 0.00 23 1018.3
20210419015922 73 296 1.0 3.0 0.00 0.00 0.00 22 1018.3
20210419015738 73 296 1.0 2.0 0.00 0.00 0.00 22 1018.3
20210419014923 74 296 1.0 3.0 0.00 0.00 0.00 22 1018.4
20210419014422 74 296 1.0 3.0 0.00 0.00 0.00 23 1018.5
20210419013909 74 296 1.0 2.0 0.00 0.00 0.00 22 1018.5
20210419013401 75 296 1.0 2.0 0.00 0.00 0.00 21 1018.7
20210419012912 75 296 1.0 2.0 0.00 0.00 0.00 20 1018.7
20210419012743 75 296 0.0 2.0 0.00 0.00 0.00 21 1018.8
20210419012029 76 296 0.0 2.0 0.00 0.00 0.00 18 1018.7
20210419011405 76 296 0.0 2.0 0.00 0.00 0.00 19 1018.8
20210419010900 76 296 0.0 2.0 0.00 0.00 0.00 20 1018.9
20210419010322 76 296 1.0 2.0 0.00 0.00 0.00 20 1018.9
20210419005938 76 296 1.0 3.0 0.00 0.00 0.00 18 1018.9
20210419005726 76 296 1.0 4.0 0.00 0.00 0.00 18 1019.0
20210419004852 76 296 1.0 4.0 0.00 0.00 0.00 18 1019.0
20210419004248 77 310 1.0 2.0 0.00 0.00 0.00 17 1019.0
20210419003743 77 310 1.0 4.0 0.00 0.00 0.00 17 1019.0
20210419003343 77 310 1.0 4.0 0.00 0.00 0.00 16 1019.1
20210419003132 77 298 2.0 5.0 0.00 0.00 0.00 17 1019.1
20210419002659 77 286 2.0 5.0 0.00 0.00 0.00 17 1019.2
20210419001751 77 308 1.0 3.0 0.00 0.00 0.00 17 1019.1
20210419001217 77 348 1.0 3.0 0.00 0.00 0.00 16 1019.2
20210419000719 77 334 1.0 4.0 0.00 0.00 0.00 17 1019.2
20210419000207 77 334 2.0 5.0 0.00 0.00 0.00 16 1019.2
20210418235815 77 289 2.0 5.0 0.00 0.00 0.00 16 1019.2
20210418235525 77 296 1.0 4.0 0.00 0.00 0.00 16 1019.1
20210418234649 78 313 1.0 3.0 0.00 0.00 0.00 16 1019.3
20210418234135 77 314 1.0 4.0 0.00 0.00 0.00 17 1019.2
20210418233646 77 298 1.0 5.0 0.00 0.00 0.00 17 1019.2
20210418233244 77 328 2.0 5.0 0.00 0.00 0.00 16 1019.3
20210418233057 77 300 2.0 7.0 0.00 0.00 0.00 16 1019.5
20210418232757 77 297 2.0 8.0 0.00 0.00 0.00 17 1019.3
20210418231626 77 286 2.0 8.0 0.00 0.00 0.00 16 1019.5
20210418231102 77 301 2.0 5.0 0.00 0.00 0.00 17 1019.6
20210418230607 77 286 2.0 5.0 0.00 0.00 0.00 16 1019.5
20210418230105 78 284 2.0 5.0 0.00 0.00 0.00 16 1019.6
20210418225852 78 318 2.0 4.0 0.00 0.00 0.00 17 1019.6
20210418225521 78 275 2.0 5.0 0.00 0.00 0.00 16 1019.6
20210418224550 78 286 2.0 5.0 0.00 0.00 0.00 17 1019.7
20210418224057 78 299 2.0 5.0 0.00 0.00 0.00 16 1019.7
20210418223545 78 287 2.0 5.0 0.00 0.00 0.00 16 1019.7
20210418223059 78 284 2.0 5.0 0.00 0.00 0.00 16 1019.9
20210418222904 78 300 1.0 5.0 0.00 0.00 0.00 17 1019.9
20210418222342 78 5 1.0 4.0 0.00 0.00 0.00 17 1020.0
20210418221551 77 334 1.0 4.0 0.00 0.00 0.00 17 1020.1
20210418221027 77 336 2.0 5.0 0.00 0.00 0.00 17 1020.2
20210418220510 77 313 2.0 5.0 0.00 0.00 0.00 17 1020.1
20210418215955 77 326 3.0 5.0 0.00 0.00 0.00 16 1020.2
20210418215828 77 306 3.0 7.0 0.00 0.00 0.00 17 1020.2
20210418215223 77 331 4.0 7.0 0.00 0.00 0.00 16 1020.4
20210418214454 77 279 3.0 7.0 0.00 0.00 0.00 16 1020.3
20210418213955 77 276 3.0 5.0 0.00 0.00 0.00 17 1020.3
20210418213450 77 288 3.0 7.0 0.00 0.00 0.00 18 1020.3
20210418213021 77 300 4.0 7.0 0.00 0.00 0.00 16 1020.3
20210418212830 77 289 3.0 6.0 0.00 0.00 0.00 17 1020.4
20210418212228 77 333 3.0 6.0 0.00 0.00 0.00 16 1020.4
20210418211449 77 306 3.0 5.0 0.00 0.00 0.00 17 1020.5
20210418210939 77 292 3.0 5.0 0.00 0.00 0.00 17 1020.6
20210418210438 77 286 2.0 5.0 0.00 0.00 0.00 17 1020.7
20210418210033 77 306 2.0 4.0 0.00 0.00 0.00 18 1020.7
20210418205915 77 321 2.0 4.0 0.00 0.00 0.00 17 1020.9
20210418205120 76 309 2.0 5.0 0.00 0.00 0.00 18 1020.9
20210418204423 76 293 3.0 5.0 0.00 0.00 0.00 17 1020.9
20210418203914 77 294 2.0 5.0 0.00 0.00 0.00 16 1021.0
20210418203418 77 286 2.0 5.0 0.00 0.00 0.00 17 1021.0
20210418202942 76 309 2.0 5.0 0.00 0.00 0.00 18 1021.0
20210418202821 76 13 3.0 5.0 0.00 0.00 0.00 17 1021.0
20210418202049 76 307 2.0 5.0 0.00 0.00 0.00 17 1021.0
20210418201431 77 312 2.0 4.0 0.00 0.00 0.00 18 1021.1
20210418200855 77 279 2.0 5.0 0.00 0.00 0.00 18 1021.2
20210418200351 77 323 2.0 5.0 0.00 0.00 0.00 19 1021.3
20210418200011 77 126 2.0 5.0 0.00 0.00 0.00 21 1021.4
20210418195758 77 227 2.0 4.0 0.00 0.00 0.00 19 1021.4
20210418195009 76 209 2.0 5.0 0.00 0.00 0.00 19 1021.3
20210418194344 76 337 2.0 5.0 0.00 0.00 0.00 19 1021.4
20210418193842 76 331 3.0 5.0 0.00 0.00 0.00 19 1021.4
20210418193355 77 281 2.0 5.0 0.00 0.00 0.00 19 1021.5
20210418193031 77 309 2.0 5.0 0.00 0.00 0.00 19 1021.6
20210418192855 77 294 1.0 4.0 0.00 0.00 0.00 18 1021.7
20210418192042 77 327 2.0 5.0 0.00 0.00 0.00 20 1021.8
20210418191335 77 334 2.0 5.0 0.00 0.00 0.00 18 1021.8
20210418190831 78 287 2.0 5.0 0.00 0.00 0.00 18 1022.0
20210418190331 78 48 2.0 5.0 0.00 0.00 0.00 19 1022.1
20210418185838 79 332 2.0 7.0 0.00 0.00 0.00 17 1022.3
20210418185631 79 189 3.0 7.0 0.00 0.00 0.00 17 1022.4
20210418184910 78 105 3.0 7.0 0.00 0.00 0.00 17 1022.4
20210418184322 78 108 3.0 7.0 0.00 0.00 0.00 14 1022.3
20210418183827 78 94 2.0 6.0 0.00 0.00 0.00 13 1022.3
20210418183312 78 45 2.0 6.0 0.00 0.00 0.00 12 1022.4
20210418182858 78 150 2.0 5.0 0.00 0.00 0.00 14 1022.4
20210418182557 78 122 3.0 5.0 0.00 0.00 0.00 13 1022.4
20210418181825 78 95 3.0 6.0 0.00 0.00 0.00 12 1022.3
20210418181252 78 74 2.0 6.0 0.00 0.00 0.00 17 1022.3
20210418180751 77 169 1.0 4.0 0.00 0.00 0.00 18 1022.1
20210418180251 77 324 1.0 4.0 0.00 0.00 0.00 16 1022.4
20210418175841 78 96 1.0 4.0 0.00 0.00 0.00 15 1022.5
20210418175635 78 277 1.0 4.0 0.00 0.00 0.00 17 1022.6
20210418174732 77 109 1.0 4.0 0.00 0.00 0.00 18 1022.6
20210418174221 77 160 1.0 5.0 0.00 0.00 0.00 17 1022.5
20210418173726 77 132 1.0 5.0 0.00 0.00 0.00 17 1022.4
20210418173234 77 169 1.0 4.0 0.00 0.00 0.00 18 1022.5
20210418172943 77 141 1.0 5.0 0.00 0.00 0.00 19 1022.5
20210418172753 76 80 2.0 5.0 0.00 0.00 0.00 17 1022.4
20210418171721 77 136 2.0 5.0 0.00 0.00 0.00 20 1022.5
20210418171224 77 101 2.0 6.0 0.00 0.00 0.00 19 1022.5
20210418170706 76 96 1.0 6.0 0.00 0.00 0.00 21 1022.5
20210418170204 76 146 1.0 5.0 0.00 0.00 0.00 19 1022.4
20210418165759 75 116 1.0 4.0 0.00 0.00 0.00 21 1022.3
20210418165324 74 194 1.0 5.0 0.00 0.00 0.00 21 1022.3
20210418164649 74 194 1.0 5.0 0.00 0.00 0.00 22 1022.1
20210418164144 73 171 1.0 5.0 0.00 0.00 0.00 20 1022.0
20210418163658 74 115 1.0 4.0 0.00 0.00 0.00 19 1022.1
20210418163308 74 115 1.0 4.0 0.00 0.00 0.00 21 1022.3
20210418163044 72 92 1.0 2.0 0.00 0.00 0.00 23 1022.0
20210418162729 72 38 0.0 2.0 0.00 0.00 0.00 18 1021.8
20210418161627 71 38 1.0 3.0 0.00 0.00 0.00 20 1021.8
20210418161131 70 38 1.0 4.0 0.00 0.00 0.00 21 1021.7
20210418160634 71 290 2.0 4.0 0.00 0.00 0.00 19 1021.9
20210418160114 72 50 2.0 4.0 0.00 0.00 0.00 22 1022.1
20210418155824 72 71 2.0 4.0 0.00 0.00 0.00 24 1022.1
20210418155327 71 59 1.0 3.0 0.00 0.00 0.00 26 1022.0
20210418154548 70 41 0.0 2.0 0.00 0.00 0.00 25 1021.8
20210418154047 69 311 0.0 1.0 0.00 0.00 0.00 26 1021.6
20210418153532 67 311 0.0 2.0 0.00 0.00 0.00 30 1021.5
20210418153032 66 311 1.0 2.0 0.00 0.00 0.00 26 1021.2
20210418152708 65 311 1.0 2.0 0.00 0.00 0.00 26 1021.2
20210418152144 65 311 0.0 2.0 0.00 0.00 0.00 26 1021.1
20210418151447 64 311 1.0 3.0 0.00 0.00 0.00 29 1021.0
20210418150948 63 311 1.0 3.0 0.00 0.00 0.00 27 1020.7
20210418150448 63 311 1.0 3.0 0.00 0.00 0.00 25 1020.7
20210418145928 63 311 1.0 2.0 0.00 0.00 0.00 25 1020.5
20210418145732 62 311 1.0 3.0 0.00 0.00 0.00 25 1020.4
20210418144920 61 311 2.0 3.0 0.00 0.00 0.00 25 1020.2
20210418144419 61 311 2.0 3.0 0.00 0.00 0.00 25 1020.3
20210418143920 61 311 2.0 3.0 0.00 0.00 0.00 24 1020.1
20210418143413 60 311 2.0 4.0 0.00 0.00 0.00 24 1020.1
20210418142940 60 311 2.0 4.0 0.00 0.00 0.00 25 1020.0
20210418142744 60 311 2.0 3.0 0.00 0.00 0.00 24 1020.1
20210418142044 60 311 2.0 3.0 0.00 0.00 0.00 22 1020.0
20210418141355 60 311 3.0 5.0 0.00 0.00 0.00 22 1019.9
20210418140847 60 311 3.0 5.0 0.00 0.00 0.00 23 1019.8
20210418140335 59 309 3.0 3.0 0.00 0.00 0.00 23 1019.7
20210418135942 59 309 3.0 4.0 0.00 0.00 0.00 22 1019.7
20210418135820 60 309 3.0 4.0 0.00 0.00 0.00 21 1019.7
20210418134938 60 306 3.0 4.0 0.00 0.00 0.00 22 1019.7
20210418134314 60 342 2.0 4.0 0.00 0.00 0.00 20 1019.7
20210418133807 60 0 3.0 4.0 0.00 0.00 0.00 22 1019.7
20210418133309 60 15 2.0 4.0 0.00 0.00 0.00 20 1019.7
20210418132851 60 29 2.0 3.0 0.00 0.00 0.00 21 1019.8
20210418132430 60 36 2.0 3.0 0.00 0.00 0.00 21 1019.8
20210418131753 60 36 2.0 3.0 0.00 0.00 0.00 19 1019.7
20210418131300 61 36 2.0 3.0 0.00 0.00 0.00 19 1019.8
20210418130757 62 61 2.0 4.0 0.00 0.00 0.00 18 1019.8
20210418130333 62 61 2.0 4.0 0.00 0.00 0.00 18 1019.8
20210418130138 62 75 2.0 6.0 0.00 0.00 0.00 18 1019.8
20210418125923 62 75 2.0 6.0 0.00 0.00 0.00 18 1019.7
20210418125031 62 59 2.0 5.0 0.00 0.00 0.00 19 1019.8
20210418124240 62 65 2.0 5.0 0.00 0.00 0.00 18 1019.7
20210418124029 62 94 1.0 5.0 0.00 0.00 0.00 18 1019.8
20210418123657 62 44 1.0 3.0 0.00 0.00 0.00 18 1019.8
20210418123313 62 44 1.0 3.0 0.00 0.00 0.00 18 1019.9
20210418122831 62 44 1.0 3.0 0.00 0.00 0.00 18 1019.9
20210418121727 63 44 1.0 3.0 0.00 0.00 0.00 17 1020.0
20210418121229 63 44 1.0 3.0 0.00 0.00 0.00 17 1020.0
20210418120756 63 44 1.0 3.0 0.00 0.00 0.00 16 1020.0
20210418120411 63 46 1.0 3.0 0.00 0.00 0.00 17 1020.0
20210418120033 64 46 1.0 3.0 0.00 0.00 0.00 16 1020.1
20210418115827 64 75 1.0 4.0 0.00 0.00 0.00 16 1020.1
20210418114659 63 71 1.0 5.0 0.00 0.00 0.00 16 1020.1
20210418114133 63 71 3.0 5.0 0.00 0.00 0.00 17 1020.1
20210418113620 63 72 3.0 8.0 0.00 0.00 0.00 16 1020.1
20210418113132 63 132 3.0 8.0 0.00 0.00 0.00 17 1020.1
20210418112953 63 80 4.0 8.0 0.00 0.00 0.00 16 1020.1
20210418112548 63 86 3.0 8.0 0.00 0.00 0.00 16 1020.1
20210418111612 63 95 2.0 5.0 0.00 0.00 0.00 17 1020.1
20210418111104 63 39 2.0 7.0 0.00 0.00 0.00 17 1020.2
20210418110617 63 128 2.0 7.0 0.00 0.00 0.00 16 1020.2
20210418110148 63 39 3.0 7.0 0.00 0.00 0.00 16 1020.1
20210418105939 62 74 2.0 7.0 0.00 0.00 0.00 17 1020.1
20210418105444 62 74 2.0 5.0 0.00 0.00 0.00 17 1019.9
20210418104622 62 96 2.0 5.0 0.00 0.00 0.00 17 1019.9
20210418104113 62 68 2.0 4.0 0.00 0.00 0.00 18 1019.9
20210418103625 62 68 2.0 4.0 0.00 0.00 0.00 18 1019.9
20210418103052 62 33 2.0 4.0 0.00 0.00 0.00 17 1019.9
20210418102904 62 58 2.0 6.0 0.00 0.00 0.00 17 1019.9
20210418102436 62 15 2.0 7.0 0.00 0.00 0.00 18 1019.9
20210418101539 62 51 2.0 7.0 0.00 0.00 0.00 18 1019.9
20210418101051 62 73 2.0 5.0 0.00 0.00 0.00 18 1019.9
20210418100526 61 21 3.0 6.0 0.00 0.00 0.00 18 1019.8
20210418100051 62 67 3.0 6.0 0.00 0.00 0.00 18 1019.9
20210418095916 62 83 3.0 6.0 0.00 0.00 0.00 17 1019.9
20210418095517 62 53 3.0 6.0 0.00 0.00 0.00 18 1020.0
20210418094525 62 84 3.0 6.0 0.00 0.00 0.00 18 1019.9
20210418094037 61 96 2.0 5.0 0.00 0.00 0.00 18 1019.8
20210418093512 62 66 2.0 4.0 0.00 0.00 0.00 18 1019.9
20210418093025 62 74 2.0 4.0 0.00 0.00 0.00 18 1019.9
20210418092725 62 83 1.0 4.0 0.00 0.00 0.00 18 1020.0
20210418092115 62 84 1.0 3.0 0.00 0.00 0.00 18 1020.0
20210418091453 62 84 1.0 3.0 0.00 0.00 0.00 17 1020.0
20210418090956 62 84 1.0 3.0 0.00 0.00 0.00 18 1020.1
20210418090440 62 84 1.0 5.0 0.00 0.00 0.00 17 1020.1
20210418090030 63 84 2.0 8.0 0.00 0.00 0.00 17 1020.0
20210418085822 62 88 2.0 8.0 0.00 0.00 0.00 17 1019.9
20210418085036 61 70 2.0 3.0 0.00 0.00 0.00 18 1019.8
20210418084417 62 70 2.0 3.0 0.00 0.00 0.00 18 1019.8
20210418083917 62 70 1.0 3.0 0.00 0.00 0.00 18 1019.9
20210418083421 62 70 1.0 3.0 0.00 0.00 0.00 18 1020.0
20210418082916 63 70 2.0 4.0 0.00 0.00 0.00 17 1020.0
20210418082715 63 70 2.0 4.0 0.00 0.00 0.00 17 1020.0
20210418081924 63 116 2.0 5.0 0.00 0.00 0.00 17 1020.0
20210418081433 62 73 2.0 5.0 0.00 0.00 0.00 17 1019.9
20210418080914 63 67 3.0 8.0 0.00 0.00 0.00 17 1020.0
20210418080422 63 74 4.0 8.0 0.00 0.00 0.00 17 1020.0
20210418080130 63 67 5.0 7.0 0.00 0.00 0.00 16 1020.1
20210418075926 63 77 5.0 8.0 0.00 0.00 0.00 16 1020.1
20210418074918 63 80 5.0 8.0 0.00 0.00 0.00 16 1020.1
20210418074348 64 68 6.0 10.0 0.00 0.00 0.00 16 1020.2
20210418073841 64 82 6.0 11.0 0.00 0.00 0.00 15 1020.3
20210418073345 65 78 5.0 11.0 0.00 0.00 0.00 15 1020.3
20210418072833 64 95 3.0 6.0 0.00 0.00 0.00 15 1020.1
20210418072511 64 71 2.0 5.0 0.00 0.00 0.00 16 1020.1
20210418071857 64 72 2.0 5.0 0.00 0.00 0.00 16 1020.0
20210418071329 64 75 1.0 0.0 0.00 0.00 0.00 15 1020.0
20210418070818 64 75 1.0 2.0 0.00 0.00 0.00 16 1020.1
20210418070310 64 75 1.0 3.0 0.00 0.00 0.00 16 1020.0
20210418065846 64 75 2.0 6.0 0.00 0.00 0.00 16 1020.0
20210418065624 64 77 2.0 6.0 0.00 0.00 0.00 16 1020.0
20210418064841 65 78 3.0 5.0 0.00 0.00 0.00 17 1020.1
20210418064245 65 85 3.0 6.0 0.00 0.00 0.00 16 1020.1
20210418063741 64 63 3.0 6.0 0.00 0.00 0.00 16 1019.9
20210418063238 63 77 2.0 4.0 0.00 0.00 0.00 17 1019.8
20210418062816 63 77 2.0 3.0 0.00 0.00 0.00 18 1019.8
20210418062547 64 77 2.0 4.0 0.00 0.00 0.00 17 1019.8
20210418061739 64 72 2.0 4.0 0.00 0.00 0.00 17 1019.9
20210418061221 64 72 3.0 5.0 0.00 0.00 0.00 17 1020.0
20210418060704 64 78 3.0 5.0 0.00 0.00 0.00 16 1020.0
20210418060235 64 63 3.0 5.0 0.00 0.00 0.00 16 1019.9
20210418060030 64 73 3.0 6.0 0.00 0.00 0.00 16 1019.8
20210418055601 64 78 4.0 6.0 0.00 0.00 0.00 16 1019.9
20210418054641 65 81 4.0 7.0 0.00 0.00 0.00 16 1020.0
20210418054131 65 79 4.0 7.0 0.00 0.00 0.00 16 1019.9
20210418053624 65 68 4.0 6.0 0.00 0.00 0.00 16 1019.9
20210418053116 64 76 5.0 8.0 0.00 0.00 0.00 16 1019.8
20210418052918 64 81 5.0 8.0 0.00 0.00 0.00 16 1019.7
20210418052521 64 69 5.0 8.0 0.00 0.00 0.00 16 1019.7
20210418051558 64 67 4.0 7.0 0.00 0.00 0.00 16 1019.7
20210418051054 64 83 4.0 7.0 0.00 0.00 0.00 16 1019.7
20210418050551 65 87 5.0 11.0 0.00 0.00 0.00 16 1019.8
20210418050121 65 82 5.0 11.0 0.00 0.00 0.00 16 1019.7
20210418045841 65 77 5.0 9.0 0.00 0.00 0.00 16 1019.6
20210418045231 65 63 5.0 8.0 0.00 0.00 0.00 16 1019.7
20210418044534 65 71 5.0 8.0 0.00 0.00 0.00 16 1019.6
20210418044032 65 61 4.0 9.0 0.00 0.00 0.00 16 1019.6
20210418043536 65 81 4.0 9.0 0.00 0.00 0.00 16 1019.6
20210418043027 65 76 4.0 6.0 0.00 0.00 0.00 16 1019.5
20210418042839 65 74 4.0 7.0 0.00 0.00 0.00 16 1019.5
20210418042141 65 65 4.0 7.0 0.00 0.00 0.00 17 1019.3
20210418041447 65 81 4.0 7.0 0.00 0.00 0.00 17 1019.3
20210418040944 65 88 4.0 8.0 0.00 0.00 0.00 17 1019.2
20210418040439 65 94 4.0 8.0 0.00 0.00 0.00 18 1019.1
20210418035941 65 56 3.0 7.0 0.00 0.00 0.00 18 1019.2
20210418035734 66 110 2.0 5.0 0.00 0.00 0.00 17 1019.1
20210418035048 66 88 3.0 7.0 0.00 0.00 0.00 17 1019.1